Location: Alvediston
(51.0078°N, 2.0364°W)
Time: 20:07:36
(UTC+00:00)

NOSS 3-1 (C) - Pass Details

Date: 27 February 2020
Orbit: 759 x 1449 km, 63.4° (Epoch: 26 March)

Event Time Altitude Azimuth Distance (km) Brightness Sun altitude
Rises 18:14:27 0° 230° (SW) 3,324 7.4 -5.5°
Reaches altitude 10° 18:16:44 10° 232° (SW) 2,452 6.7 -5.8°
Maximum altitude 18:22:23 74° 318° (NW) 970 3.7 -6.7°
Drops below altitude 10° 18:29:05 10° 44° (NE) 2,887 5.5 -7.8°
Sets 18:31:59 0° 46° (NE) 3,956 6.2 -8.2°
